SCP
0 0 0 0 0 0 0 0 0 0 0 0 0 0 0 0 0 0 0 0 0 0 0 0 0 0 0 0 0 0 0 0 0 0 0 0 0 0 0 0 0 0 0
0 0 0 0 0 0 0 0 0 0 0 0 0 0 0 0 0 0 0 0 0 0 0 0 0 0 0 0 0 0 0 0 0 0 0 0 0 0 0 0 0 0 0
0 0 0 0 0 0 0 0 0 0 0 0 0 0 0 0 0 0 0 0 0 0 0 0 0 0 0 0 0 0 0 0 0 0 0 0 0 0 0 0 0 0 0
0 0 0 0 0 0 0 0 0 0 0 0 0 0 0 0 0 0 0 0 0 0 0 0 0 0 0 0 0 0 0 0 0 0 0 0 0 0 0 0 0 0 0
0 0 0 0 0 0 0 0 0 0 0 0 0 0 0 0 0 0 0 0 0 0 0 0 0 0 0 0 0 0 0 0 0 0 0 0 0 0 0 0 0 0 0
0 0 0 0 0 0 0 0 0 0 0 0 0 0 0 0 0 0 0 0 0 0 0 0 0 0 0 0 0 0 0 0 0 0 0 0 0 0 0 0 0 0 0
0 0 0 0 0 0 0 0 0 0 0 0 0 0 0 0 0 0 0 0 0 0 0 0 0 0 0 0 0 0 0 0 0 0 0 0 0 0 0 0 0 0 0
0 0 0 0 0 0 0 0 0 -0 -0 -0 -0 -0 0 0 0 0 0 0 0 0 0 0 0 0 0 0 0 0 0 0 0 0 0 0 0 0 0 0 0 0 0
0 0 0 0 0 0 -0 0 -0 0 -0 -0 -0 -0 -0 -0 -0 0 0 0 0 0 0 0 0 0 0 0 0 0 0 0 0 0 0 0 0 0 0 0 0 0 0
0 0 0 0 0 0 0 0 0 0 0 0 -0 -0 -0 -0 -0 -0 -0 -0 0 0 0 0 0 0 0 0 0 0 0 0 0 0 0 0 0 0 0 0 0 0 0
0 0 0 0 0 0 0 0 0 0 0 0 0 0 0 0 0 -0 -0 0 -0 -0 0 0 0 0 0 0 0 0 0 0 0 0 0 0 0 0 0 0 0 0 0
-0 0 0 0 0 0 0 0 0 0 0 0 0 0 0 0 0 -0 -0 0 -0 -0 -0 -0 0 0 0 0 0 0 0 0 0 0 0 0 0 0 0 0 0 0 0
0 0 0 0 0 0 0 0 0 0 0 0 0 0 0 0 0 0 -0 -0 -0 -0 -0 -0 -0 -0 -0 0 0 0 0 0 0 0 0 0 0 0 0 0 0 0 0
0 0 0 0 0 0 0 0 0 0 0 0 0 0 0 0 0 0 0 -0 -0 -0 -0 -0 -0 -0 -0 -0 -0 -0 0 0 0 0 0 0 0 0 0 0 0 0 0
0 0 0 0 0 0 0 0 0 0 0 0 0 0 0 0 0 0 0 0 -0 -0 -0 -0 -0 -0 -0 -0 -0 -0 -0 -0 0 0 0 0 0 0 0 0 0 0 0
0 0 0 0 0 0 0 0 0 0 0 0 0 0 0 0 0 0 0 0 0 0 -0 0 -0 -0 -0 -0 -0 -0 -0 -0 -0 0 0 0 0 0 0 0 0 0 0
0 0 0 0 0 0 0 0 0 0 0 0 0 0 0 0 0 0 0 0 0 0 0 0 0 0 -0 -0 -0 0 -0 -0 -0 -0 0 0 0 0 0 0 0 0 0
0 0 0 0 0 0 0 0 0 0 0 0 0 0 0 0 0 0 0 0 0 0 0 0 0 -0 -0 -0 -0 -0 -0 -0 -0 0 0 0 0 0 0 0 0 0 0
0 0 0 0 0 0 0 0 0 0 0 0 0 0 0 0 0 0 0 0 0 0 0 0 0 0 -0 -0 -0 -0 -0 -0 -0 0 0 0 0 0 0 0 0 0 0
0 0 0 0 0 0 0 0 0 0 0 0 0 0 0 0 0 0 0 0 0 0 0 0 0 0 -0 -0 -0 -0 -0 -0 -0 -0 0 0 0 0 0 0 0 0 0
0 0 0 0 0 0 0 0 0 0 0 0 0 0 0 0 0 0 0 0 0 0 0 0 0 -0 -0 -0 -0 -0 -0 -0 -0 -0 0 -0 0 0 0 0 0 0 0
0 0 0 0 0 0 0 0 0 0 0 0 0 0 0 0 0 0 0 0 0 0 0 0 0 0 -0 -0 -0 -0 -0 -0 -0 -0 0 0 0 0 0 0 0 0 0
0 0 0 0 0 0 0 0 0 0 0 0 0 0 0 0 0 0 0 0 0 0 0 0 0 0 0 0 0 0 -0 0 0 0 -0 -0 0 0 0 0 0 0 0
0 0 0 0 0 0 0 0 0 0 0 0 0 0 0 0 0 0 0 0 0 0 0 0 0 0 0 0 0 0 0 0 0 0 0 -0 0 0 0 0 0 0 0
0 0 0 0 0 0 0 0 0 0 0 0 0 0 0 0 0 0 0 0 0 0 0 0 0 0 0 0 0 0 0 0 -0 -0 0 -0 -0 -0 0 0 0 0 0
0 0 0 0 0 0 0 0 0 0 0 0 0 0 0 0 0 0 0 0 0 0 0 0 0 0 0 0 0 0 0 0 0 -0 0 -0 0 -0 -0 0 0 0 0
Wind_Speed_500mb
24 23 21 20 20 20 21 22 25 28 30 33 37 37 38 35 35 40 49 53 54 50 51 48 49 54 60 64 64 62 63 64 68 69 68 61 55 53 50 49 52 55 54
28 28 27 27 26 26 27 26 26 25 24 27 32 36 38 39 39 37 37 36 37 41 38 43 47 54 58 65 67 71 74 73 73 72 72 69 66 62 59 55 52 55 57
32 31 30 30 30 29 28 27 26 25 25 25 25 24 28 32 33 33 34 39 39 36 36 44 42 38 46 49 53 59 69 80 83 82 80 75 70 72 69 66 61 58 59
36 37 38 38 39 37 36 35 34 32 31 29 26 24 19 17 16 17 17 23 30 37 35 40 40 45 47 49 51 58 64 54 72 85 85 90 81 76 75 73 71 66 63
34 36 37 39 40 41 43 44 45 44 42 38 30 19 15 11 9 17 17 20 25 31 35 35 38 42 47 52 53 57 60 60 65 54 57 88 98 88 80 79 78 74 72
32 33 34 35 36 38 39 40 42 44 48 47 38 26 11 6 17 31 21 23 28 32 35 37 40 42 45 49 51 55 58 60 64 65 70 69 44 94 96 84 83 83 82
30 33 34 36 38 40 43 45 46 48 49 52 49 34 19 8 21 14 26 39 41 40 39 39 40 42 44 46 47 53 57 59 54 60 66 62 79 65 51 93 88 91 95
32 35 37 39 41 43 44 47 50 52 53 58 57 28 20 11 43 20 24 41 56 51 48 50 46 45 48 48 48 50 54 62 68 72 70 68 70 81 81 87 83 95 94
32 34 36 38 40 43 46 49 50 51 49 49 51 37 17 15 42 17 31 43 62 60 59 53 53 56 51 54 54 55 58 62 64 66 74 76 72 69 73 80 84 79 110
30 32 34 36 39 40 41 44 45 46 45 45 41 39 29 26 19 27 30 32 66 65 67 56 65 56 64 66 66 62 64 64 67 69 66 73 76 73 67 71 69 83 100
28 31 33 35 36 39 40 40 41 41 40 39 39 37 34 30 21 26 40 60 57 55 64 53 63 59 72 75 78 77 73 70 68 70 73 69 73 75 72 66 63 66 73
28 31 33 34 36 37 38 38 38 37 37 35 34 33 33 30 33 29 45 56 64 64 51 53 62 63 73 78 80 85 82 79 78 75 74 75 70 72 73 77 70 63 69
26 29 31 33 35 36 38 38 38 37 36 35 33 32 31 31 31 34 37 46 61 64 32 28 52 66 74 85 81 84 87 89 88 83 81 78 75 69 72 75 76 71 56
26 28 31 32 33 34 35 36 36 37 35 35 34 32 32 33 34 37 37 44 57 37 39 55 38 79 94 98 97 95 90 86 92 91 85 81 80 74 69 72 76 77 77
25 28 30 32 33 34 35 35 36 37 36 36 34 34 32 33 36 38 40 39 36 42 56 44 72 90 100 103 104 105 103 99 90 90 91 86 84 81 73 72 74 74 74
27 29 31 32 33 34 35 36 37 37 36 36 36 34 33 34 36 37 41 43 42 39 40 68 83 96 99 104 105 107 108 106 103 95 91 92 85 81 82 79 75 76 76
29 30 32 33 34 36 36 37 37 38 38 37 36 35 35 36 37 38 42 45 46 45 60 88 84 95 100 104 112 111 110 110 106 104 99 94 89 84 77 74 77 74 75
31 31 34 35 36 36 36 37 38 38 38 38 37 36 36 38 39 40 45 47 46 49 54 82 90 100 101 105 112 116 117 112 109 106 105 96 90 84 73 70 71 71 71
33 35 37 38 38 38 37 38 38 38 39 40 39 38 39 41 42 45 48 47 48 51 55 67 96 101 107 110 115 116 116 119 113 107 107 100 94 81 77 78 68 60 58
35 37 40 41 41 39 38 39 39 38 40 41 41 40 41 43 46 50 51 51 53 55 54 61 87 101 104 105 108 114 130 121 125 117 104 105 95 94 92 82 67 60 53
36 40 43 44 44 42 40 41 40 39 41 42 43 44 44 45 47 49 51 53 54 49 51 67 75 88 97 105 98 107 109 129 126 121 114 107 109 106 91 84 71 60 60
41 45 45 46 46 45 43 43 42 42 43 44 46 47 48 49 50 51 49 48 46 43 55 64 73 80 93 91 93 98 107 116 128 111 119 127 108 111 97 90 82 64 57
49 51 49 50 49 49 47 46 45 46 47 47 48 49 50 51 52 53 51 49 51 51 59 60 70 69 80 82 96 109 104 109 114 118 109 114 108 114 100 89 84 63 51
54 56 55 53 53 51 49 49 48 50 51 49 49 51 52 53 54 57 53 51 62 68 64 71 66 74 81 97 97 92 97 103 103 102 99 88 103 97 92 96 83 59 52
57 58 57 57 56 51 51 51 51 53 54 53 51 50 51 52 52 55 47 53 72 69 71 73 70 82 85 91 91 88 92 89 96 97 94 68 72 87 116 94 77 55 45
59 58 60 59 57 54 51 53 52 55 57 55 54 53 51 50 50 39 38 54 71 73 75 82 85 87 87 91 92 85 82 77 88 75 77 69 99 81 58 86 50 57 68
Wind_Direction_500mb
38 33 25 14 3 352 339 322 307 297 292 286 281 279 276 277 276 274 272 271 273 272 272 275 279 275 274 275 275 277 278 280 280 281 283 286 290 290 290 288 279 269 266
40 39 38 35 30 23 16 7 356 345 331 312 296 291 287 280 279 279 279 280 279 274 279 278 277 275 275 273 273 274 278 279 280 280 280 281 286 289 288 288 284 274 266
46 42 38 34 28 22 16 11 7 3 357 348 336 323 303 289 282 278 277 279 278 279 281 272 267 280 284 284 281 277 277 276 276 279 277 277 278 283 285 285 285 283 269
44 43 41 39 36 33 29 27 22 17 9 357 347 346 339 323 312 300 296 289 286 281 280 279 283 281 272 270 275 271 273 284 270 273 276 272 272 274 278 279 280 283 281
39 37 36 34 31 30 27 24 22 20 20 19 12 356 348 343 12 359 333 318 310 303 297 291 284 282 283 283 282 280 278 276 279 288 266 269 271 270 270 272 275 278 281
34 33 31 30 29 28 27 26 23 21 18 17 19 17 22 13 27 354 356 349 344 336 327 321 311 302 292 292 289 289 288 285 281 279 282 280 281 266 270 268 270 272 274
30 27 25 24 23 22 21 20 20 18 15 17 19 33 28 94 350 5 9 4 360 354 349 346 343 336 323 316 309 298 291 286 288 285 279 278 283 280 296 259 266 269 271
25 23 21 21 20 19 18 17 18 19 18 17 21 15 2 359 343 26 6 7 4 3 360 357 352 346 341 339 330 321 310 299 287 280 278 274 272 273 276 284 264 265 269
23 21 19 19 18 17 17 16 16 17 18 18 20 30 1 342 342 329 346 353 357 2 3 1 359 354 350 345 341 335 323 316 308 294 285 282 277 276 273 272 272 278 256
23 20 18 17 16 16 15 15 13 13 13 14 16 20 14 357 344 325 328 341 346 354 359 359 1 0 354 351 347 340 334 326 320 313 304 288 282 277 274 267 264 265 269
19 16 14 13 13 14 13 12 12 12 11 11 10 8 4 2 346 325 325 329 338 346 347 353 359 354 353 351 348 342 339 333 326 320 313 305 288 279 272 266 268 262 262
11 10 9 9 9 8 8 7 7 6 6 6 4 2 360 357 341 340 323 328 330 336 348 337 348 349 348 346 343 340 338 336 331 326 319 314 306 287 277 269 262 267 269
3 2 3 3 3 2 2 1 0 359 359 359 358 354 351 348 339 337 328 324 327 334 330 340 342 342 341 343 341 337 334 335 333 328 324 318 312 301 284 276 272 268 263
352 353 354 355 355 353 353 352 352 351 350 350 349 348 345 342 339 337 334 329 331 325 331 333 331 340 340 340 341 337 334 329 328 328 324 322 316 305 289 280 274 272 262
337 340 343 344 344 344 344 343 343 342 342 342 341 341 339 337 338 338 338 336 332 322 326 336 327 338 337 337 338 336 335 331 325 323 323 320 319 313 295 281 274 271 269
321 327 332 334 335 335 335 335 335 335 334 334 334 334 333 333 335 335 336 335 332 320 306 321 330 334 335 335 334 331 330 328 327 325 321 318 318 316 308 289 281 269 272
306 314 321 323 326 327 328 328 329 328 327 328 328 327 327 328 330 330 331 331 330 325 313 324 325 332 333 333 333 330 328 325 325 323 322 317 317 316 309 296 287 276 272
294 302 311 314 318 320 321 321 322 321 320 321 322 321 321 323 325 326 327 329 327 323 318 318 327 330 332 332 332 331 328 325 323 322 319 319 316 315 308 293 289 279 270
290 298 304 307 311 314 316 317 317 316 316 317 316 316 316 318 320 320 323 323 321 319 319 318 323 328 329 332 332 329 327 325 322 320 319 319 316 313 309 307 292 281 273
292 297 299 302 304 307 310 312 311 310 312 312 312 312 313 314 316 317 319 321 319 318 319 319 319 325 328 331 329 330 326 326 323 322 319 318 319 314 311 309 295 281 276
294 295 296 297 298 300 304 307 306 305 308 309 308 308 309 309 311 312 318 318 316 316 319 316 317 319 324 327 328 328 324 324 322 322 322 318 313 314 314 312 306 281 269
293 292 295 294 294 295 298 301 300 300 304 304 303 303 304 305 307 309 312 314 310 313 314 315 313 316 321 320 326 322 320 319 315 321 319 312 316 314 315 314 313 296 275
287 287 290 292 290 291 293 295 295 296 299 300 299 299 301 303 305 306 309 309 314 311 313 313 313 314 315 320 318 321 319 314 310 314 314 309 315 313 314 313 311 297 282
285 282 284 288 286 288 287 290 290 291 295 297 297 297 298 300 303 305 309 314 305 311 316 316 315 319 317 321 321 316 314 314 311 313 313 298 314 308 312 311 309 303 298
285 280 279 283 284 285 282 285 286 289 293 295 295 294 295 297 302 304 310 304 304 312 315 315 317 318 321 321 322 321 323 317 313 313 310 314 310 305 307 307 309 308 317
284 277 275 280 281 281 279 283 285 287 290 292 293 292 293 298 304 299 302 301 303 315 317 318 319 319 322 323 325 325 324 314 312 312 309 303 308 316 313 306 307 293 310
Wind_Speed_850mb
24 23 21 20 20 20 21 22 25 28 30 33 37 37 38 35 35 40 49 53 54 50 51 48 49 54 60 64 64 62 63 64 68 69 68 61 55 53 50 49 52 55 54
28 28 27 27 26 26 27 26 26 25 24 27 32 36 38 39 39 37 37 36 37 41 38 43 47 54 58 65 67 71 74 73 73 72 72 69 66 62 59 55 52 55 57
32 31 30 30 30 29 28 27 26 25 25 25 25 24 28 32 33 33 34 39 39 36 36 44 42 38 46 49 53 59 69 80 83 82 80 75 70 72 69 66 61 58 59
36 37 38 38 39 37 36 35 34 32 31 29 26 24 19 17 16 17 17 23 30 37 35 40 40 45 47 49 51 58 64 54 72 85 85 90 81 76 75 73 71 66 63
34 36 37 39 40 41 43 44 45 44 42 38 30 19 15 11 9 17 17 20 25 31 35 35 38 42 47 52 53 57 60 60 65 54 57 88 98 88 80 79 78 74 72
32 33 34 35 36 38 39 40 42 44 48 47 38 26 11 6 17 31 21 23 28 32 35 37 40 42 45 49 51 55 58 60 64 65 70 69 44 94 96 84 83 83 82
30 33 34 36 38 40 43 45 46 48 49 52 49 34 19 8 21 14 26 39 41 40 39 39 40 42 44 46 47 53 57 59 54 60 66 62 79 65 51 93 88 91 95
32 35 37 39 41 43 44 47 50 52 53 58 57 28 20 11 43 20 24 41 56 51 48 50 46 45 48 48 48 50 54 62 68 72 70 68 70 81 81 87 83 95 94
32 34 36 38 40 43 46 49 50 51 49 49 51 37 17 15 42 17 31 43 62 60 59 53 53 56 51 54 54 55 58 62 64 66 74 76 72 69 73 80 84 79 110
30 32 34 36 39 40 41 44 45 46 45 45 41 39 29 26 19 27 30 32 66 65 67 56 65 56 64 66 66 62 64 64 67 69 66 73 76 73 67 71 69 83 100
28 31 33 35 36 39 40 40 41 41 40 39 39 37 34 30 21 26 40 60 57 55 64 53 63 59 72 75 78 77 73 70 68 70 73 69 73 75 72 66 63 66 73
28 31 33 34 36 37 38 38 38 37 37 35 34 33 33 30 33 29 45 56 64 64 51 53 62 63 73 78 80 85 82 79 78 75 74 75 70 72 73 77 70 63 69
26 29 31 33 35 36 38 38 38 37 36 35 33 32 31 31 31 34 37 46 61 64 32 28 52 66 74 85 81 84 87 89 88 83 81 78 75 69 72 75 76 71 56
26 28 31 32 33 34 35 36 36 37 35 35 34 32 32 33 34 37 37 44 57 37 39 55 38 79 94 98 97 95 90 86 92 91 85 81 80 74 69 72 76 77 77
25 28 30 32 33 34 35 35 36 37 36 36 34 34 32 33 36 38 40 39 36 42 56 44 72 90 100 103 104 105 103 99 90 90 91 86 84 81 73 72 74 74 74
27 29 31 32 33 34 35 36 37 37 36 36 36 34 33 34 36 37 41 43 42 39 40 68 83 96 99 104 105 107 108 106 103 95 91 92 85 81 82 79 75 76 76
29 30 32 33 34 36 36 37 37 38 38 37 36 35 35 36 37 38 42 45 46 45 60 88 84 95 100 104 112 111 110 110 106 104 99 94 89 84 77 74 77 74 75
31 31 34 35 36 36 36 37 38 38 38 38 37 36 36 38 39 40 45 47 46 49 54 82 90 100 101 105 112 116 117 112 109 106 105 96 90 84 73 70 71 71 71
33 35 37 38 38 38 37 38 38 38 39 40 39 38 39 41 42 45 48 47 48 51 55 67 96 101 107 110 115 116 116 119 113 107 107 100 94 81 77 78 68 60 58
35 37 40 41 41 39 38 39 39 38 40 41 41 40 41 43 46 50 51 51 53 55 54 61 87 101 104 105 108 114 130 121 125 117 104 105 95 94 92 82 67 60 53
36 40 43 44 44 42 40 41 40 39 41 42 43 44 44 45 47 49 51 53 54 49 51 67 75 88 97 105 98 107 109 129 126 121 114 107 109 106 91 84 71 60 60
41 45 45 46 46 45 43 43 42 42 43 44 46 47 48 49 50 51 49 48 46 43 55 64 73 80 93 91 93 98 107 116 128 111 119 127 108 111 97 90 82 64 57
49 51 49 50 49 49 47 46 45 46 47 47 48 49 50 51 52 53 51 49 51 51 59 60 70 69 80 82 96 109 104 109 114 118 109 114 108 114 100 89 84 63 51
54 56 55 53 53 51 49 49 48 50 51 49 49 51 52 53 54 57 53 51 62 68 64 71 66 74 81 97 97 92 97 103 103 102 99 88 103 97 92 96 83 59 52
57 58 57 57 56 51 51 51 51 53 54 53 51 50 51 52 52 55 47 53 72 69 71 73 70 82 85 91 91 88 92 89 96 97 94 68 72 87 116 94 77 55 45
59 58 60 59 57 54 51 53 52 55 57 55 54 53 51 50 50 39 38 54 71 73 75 82 85 87 87 91 92 85 82 77 88 75 77 69 99 81 58 86 50 57 68
Wind_Direction_850mb
38 33 25 14 3 352 339 322 307 297 292 286 281 279 276 277 276 274 272 271 273 272 272 275 279 275 274 275 275 277 278 280 280 281 283 286 290 290 290 288 279 269 266
40 39 38 35 30 23 16 7 356 345 331 312 296 291 287 280 279 279 279 280 279 274 279 278 277 275 275 273 273 274 278 279 280 280 280 281 286 289 288 288 284 274 266
46 42 38 34 28 22 16 11 7 3 357 348 336 323 303 289 282 278 277 279 278 279 281 272 267 280 284 284 281 277 277 276 276 279 277 277 278 283 285 285 285 283 269
44 43 41 39 36 33 29 27 22 17 9 357 347 346 339 323 312 300 296 289 286 281 280 279 283 281 272 270 275 271 273 284 270 273 276 272 272 274 278 279 280 283 281
39 37 36 34 31 30 27 24 22 20 20 19 12 356 348 343 12 359 333 318 310 303 297 291 284 282 283 283 282 280 278 276 279 288 266 269 271 270 270 272 275 278 281
34 33 31 30 29 28 27 26 23 21 18 17 19 17 22 13 27 354 356 349 344 336 327 321 311 302 292 292 289 289 288 285 281 279 282 280 281 266 270 268 270 272 274
30 27 25 24 23 22 21 20 20 18 15 17 19 33 28 94 350 5 9 4 360 354 349 346 343 336 323 316 309 298 291 286 288 285 279 278 283 280 296 259 266 269 271
25 23 21 21 20 19 18 17 18 19 18 17 21 15 2 359 343 26 6 7 4 3 360 357 352 346 341 339 330 321 310 299 287 280 278 274 272 273 276 284 264 265 269
23 21 19 19 18 17 17 16 16 17 18 18 20 30 1 342 342 329 346 353 357 2 3 1 359 354 350 345 341 335 323 316 308 294 285 282 277 276 273 272 272 278 256
23 20 18 17 16 16 15 15 13 13 13 14 16 20 14 357 344 325 328 341 346 354 359 359 1 0 354 351 347 340 334 326 320 313 304 288 282 277 274 267 264 265 269
19 16 14 13 13 14 13 12 12 12 11 11 10 8 4 2 346 325 325 329 338 346 347 353 359 354 353 351 348 342 339 333 326 320 313 305 288 279 272 266 268 262 262
11 10 9 9 9 8 8 7 7 6 6 6 4 2 360 357 341 340 323 328 330 336 348 337 348 349 348 346 343 340 338 336 331 326 319 314 306 287 277 269 262 267 269
3 2 3 3 3 2 2 1 0 359 359 359 358 354 351 348 339 337 328 324 327 334 330 340 342 342 341 343 341 337 334 335 333 328 324 318 312 301 284 276 272 268 263
352 353 354 355 355 353 353 352 352 351 350 350 349 348 345 342 339 337 334 329 331 325 331 333 331 340 340 340 341 337 334 329 328 328 324 322 316 305 289 280 274 272 262
337 340 343 344 344 344 344 343 343 342 342 342 341 341 339 337 338 338 338 336 332 322 326 336 327 338 337 337 338 336 335 331 325 323 323 320 319 313 295 281 274 271 269
321 327 332 334 335 335 335 335 335 335 334 334 334 334 333 333 335 335 336 335 332 320 306 321 330 334 335 335 334 331 330 328 327 325 321 318 318 316 308 289 281 269 272
306 314 321 323 326 327 328 328 329 328 327 328 328 327 327 328 330 330 331 331 330 325 313 324 325 332 333 333 333 330 328 325 325 323 322 317 317 316 309 296 287 276 272
294 302 311 314 318 320 321 321 322 321 320 321 322 321 321 323 325 326 327 329 327 323 318 318 327 330 332 332 332 331 328 325 323 322 319 319 316 315 308 293 289 279 270
290 298 304 307 311 314 316 317 317 316 316 317 316 316 316 318 320 320 323 323 321 319 319 318 323 328 329 332 332 329 327 325 322 320 319 319 316 313 309 307 292 281 273
292 297 299 302 304 307 310 312 311 310 312 312 312 312 313 314 316 317 319 321 319 318 319 319 319 325 328 331 329 330 326 326 323 322 319 318 319 314 311 309 295 281 276
294 295 296 297 298 300 304 307 306 305 308 309 308 308 309 309 311 312 318 318 316 316 319 316 317 319 324 327 328 328 324 324 322 322 322 318 313 314 314 312 306 281 269
293 292 295 294 294 295 298 301 300 300 304 304 303 303 304 305 307 309 312 314 310 313 314 315 313 316 321 320 326 322 320 319 315 321 319 312 316 314 315 314 313 296 275
287 287 290 292 290 291 293 295 295 296 299 300 299 299 301 303 305 306 309 309 314 311 313 313 313 314 315 320 318 321 319 314 310 314 314 309 315 313 314 313 311 297 282
285 282 284 288 286 288 287 290 290 291 295 297 297 297 298 300 303 305 309 314 305 311 316 316 315 319 317 321 321 316 314 314 311 313 313 298 314 308 312 311 309 303 298
285 280 279 283 284 285 282 285 286 289 293 295 295 294 295 297 302 304 310 304 304 312 315 315 317 318 321 321 322 321 323 317 313 313 310 314 310 305 307 307 309 308 317
284 277 275 280 281 281 279 283 285 287 290 292 293 292 293 298 304 299 302 301 303 315 317 318 319 319 322 323 325 325 324 314 312 312 309 303 308 316 313 306 307 293 310